Flag for U.S.A. Weather past 2 weeks in Tyler, Texas, U.S.A.

Now
75 °F

Clear.


Feels Like: 74 °F
Forecast: 76 / 96 °F
Wind: 6 mph from South

Location: Tyler Pounds Field

Current Time: Aug 23, 2014 at 6:50:05 AM

Latest Report: Aug 23, 2014 at 5:53 AM


Visibility: 10 mi

Pressure: 29.98 "Hg

Humidity: 88%

Dew point: 71 °F

Location of TylerLocation

Historic Weather in Tyler — Graph

°F

Tyler temperature yesterday

Maximum temperature yesterday: 96 °F (at 2:53 PM)
Minimum temperature yesterday: 77 °F (at 4:53 AM)
Average temperature yesterday: 86 °F

Past Weeks' High & Low Weather Summary

 TemperatureHumidityPressure
High97 °F (Aug 16, 3:53 PM)94% (Aug 21, 4:53 AM)30.11 "Hg (Aug 21, 4:53 AM)
Low65 °F (Aug 13, 6:53 AM)30% (Aug 12, 3:53 PM)29.85 "Hg (Aug 18, 6:53 PM)
Average84 °F66%29.96 "Hg
* Reported Aug 8 5:53 AM — Aug 23 5:53 AM, Tyler, Weather by CustomWeather, © 2014

Note: Actual official high and low records may vary slightly from our data, if they occured in-between our weather recording intervals... More about our weather records

Advertising

Tyler weather history for previous 24 hours

 ConditionsComfort  
Time TempWeatherWind HumidityBarometerVisibility
5:53 AM
Aug 23
75 °FClear.6 mph88%29.98 "Hg10 mi
4:53 AM76 °FClear.7 mph85%29.97 "Hg10 mi
3:53 AM77 °FClear.7 mph82%29.98 "Hg10 mi
2:53 AM79 °FClear.9 mph79%29.97 "Hg10 mi
1:53 AM80 °FClear.10 mph74%29.97 "Hg10 mi
12:53 AM81 °FClear.8 mph69%29.96 "Hg10 mi
11:53 PM
Aug 22
83 °FClear.8 mph65%29.97 "Hg10 mi
10:53 PM83 °FClear.8 mph68%29.97 "Hg10 mi
9:53 PM85 °FClear.9 mph63%29.97 "Hg10 mi
8:53 PM85 °FSunny.7 mph65%29.96 "Hg10 mi
7:53 PM89 °FSunny.9 mph57%29.96 "Hg10 mi
6:53 PM93 °FSunny.10 mph50%29.96 "Hg10 mi
5:53 PM96 °FSunny.10 mph37%29.96 "Hg10 mi
4:53 PM96 °FSunny.9 mph40%29.97 "Hg10 mi
3:53 PM96 °FSunny.8 mph41%29.98 "Hg10 mi
2:53 PM96 °FSunny.12 mph40%30.01 "Hg10 mi
1:53 PM94 °FSunny.7 mph46%30.03 "Hg10 mi
12:53 PM92 °FSunny.13 mph51%30.05 "Hg10 mi
11:53 AM90 °FSunny.10 mph56%30.06 "Hg10 mi
10:53 AM87 °FSunny.9 mph61%30.06 "Hg10 mi
9:53 AM83 °FPassing clouds.12 mph72%30.06 "Hg10 mi
8:53 AM81 °FPartly sunny.12 mph79%30.06 "Hg10 mi
8:01 AM81 °FScattered clouds.13 mph79%30.08 "Hg10 mi
6:53 AM78 °FPassing clouds.13 mph84%30.04 "Hg10 mi
6:02 AM77 °FPassing clouds.9 mph89%30.06 "Hg10 mi
Weather by CustomWeather, © 2014

See weather overviewHow to use our weather pages